{"data":{"norad_id":65544,"intl_designator":"2025-199A","name":"YAOGAN-40 03A","alt_names":[],"object_type":"PAYLOAD","status":"ACTIVE","operator":null,"country":"PRC","launch_date":"2025-09-06","launch_site_code":"TAISC","launch_vehicle":null,"mission":null,"orbit_class":"UNKNOWN","rcs_meters":null,"size_class":null,"mass_kg":null,"dimensions":null,"purposes":[],"wikipedia_slug":null,"has_3d_model":false,"image_url":null,"decayed_at":null,"tle_current":{"epoch":"2026-05-25T05:04:41.585952Z","epoch_age_seconds":56805,"freshness":"FRESH","line1":"1 65544U 25199A   26145.21159243  .00000292  00000+0  11300-3 0  9995","line2":"2 65544  85.9902  51.7016 0014878 136.4972 223.7395 14.26473148 37145","mean_motion":14.26473148,"eccentricity":0.0014878,"inclination_deg":85.9902,"raan_deg":51.7016,"arg_perigee_deg":136.4972,"mean_anomaly_deg":223.7395,"bstar":0.000113,"rev_number":3714,"period_min":100.94827245917,"perigee_km":792.85904411724,"apogee_km":814.22885394918,"semimajor_km":7181.6809490332,"source":"CELESTRAK","updated_at":"2026-05-25T13:38:05.510847Z"}}}